| time (UTC) | temp F | wind direction | speed MPH | gust MPH | rain 1hr in | rain 24hr in | rain mn in | humidity % | barometer mb |
| 20260510010051 | 62 | 0 | 0.0 | 0.0 | 0.00 | 0.02 | 0.02 | 95 | 1014.6 |
| 20260510004555 | 63 | 0 | 0.0 | 0.0 | 0.00 | 0.02 | 0.02 | 94 | 1014.4 |
| 20260510003050 | 64 | 0 | 0.0 | 0.0 | 0.00 | 0.02 | 0.02 | 93 | 1014.2 |
| 20260510001551 | 65 | 0 | 0.0 | 0.0 | 0.00 | 0.02 | 0.02 | 92 | 1014.2 |
| 20260510000050 | 66 | 0 | 0.0 | 0.0 | 0.00 | 0.02 | 0.02 | 90 | 1014.0 |
| 20260509234551 | 67 | 0 | 0.0 | 0.0 | 0.00 | 0.02 | 0.02 | 88 | 1014.1 |
| 20260509233053 | 68 | 0 | 0.0 | 0.0 | 0.00 | 0.02 | 0.02 | 87 | 1013.9 |
| 20260509231603 | 69 | 0 | 0.0 | 0.0 | 0.00 | 0.02 | 0.02 | 83 | 1013.8 |
| 20260509230047 | 69 | 0 | 0.0 | 0.0 | 0.00 | 0.02 | 0.02 | 79 | 1013.8 |
| 20260509224555 | 70 | 0 | 0.0 | 0.0 | 0.00 | 0.02 | 0.02 | 77 | 1013.7 |
| 20260509223054 | 70 | 0 | 0.0 | 0.0 | 0.00 | 0.02 | 0.02 | 79 | 1013.7 |
| 20260509221547 | 71 | 0 | 0.0 | 1.0 | 0.00 | 0.02 | 0.02 | 74 | 1013.6 |
| 20260509220052 | 71 | 0 | 0.0 | 1.0 | 0.00 | 0.02 | 0.02 | 75 | 1013.7 |
| 20260509214550 | 71 | 0 | 0.0 | 4.0 | 0.00 | 0.02 | 0.02 | 74 | 1013.6 |
| 20260509213053 | 71 | 0 | 0.0 | 0.0 | 0.00 | 0.02 | 0.02 | 74 | 1013.3 |
| 20260509211548 | 71 | 148 | 0.0 | 1.0 | 0.00 | 0.02 | 0.02 | 74 | 1013.3 |
| 20260509210054 | 71 | 0 | 0.0 | 4.0 | 0.00 | 0.02 | 0.02 | 74 | 1013.3 |
| 20260509204547 | 71 | 0 | 0.0 | 3.0 | 0.00 | 0.02 | 0.02 | 74 | 1013.1 |
| 20260509203043 | 71 | 143 | 0.0 | 3.0 | 0.00 | 0.02 | 0.02 | 75 | 1013.4 |
| 20260509201549 | 71 | 0 | 0.0 | 1.0 | 0.00 | 0.02 | 0.02 | 75 | 1013.3 |
| 20260509200049 | 71 | 0 | 0.0 | 1.0 | 0.00 | 0.02 | 0.02 | 73 | 1013.0 |
| 20260509194549 | 70 | 0 | 0.0 | 1.0 | 0.00 | 0.02 | 0.02 | 74 | 1013.1 |
| 20260509193051 | 71 | 160 | 0.0 | 2.0 | 0.00 | 0.02 | 0.02 | 74 | 1013.2 |
| 20260509191547 | 70 | 0 | 0.0 | 2.0 | 0.00 | 0.02 | 0.02 | 74 | 1013.3 |
| 20260509190054 | 70 | 143 | 0.0 | 2.0 | 0.00 | 0.02 | 0.02 | 75 | 1013.3 |
| 20260509184547 | 70 | 0 | 0.0 | 1.0 | 0.00 | 0.02 | 0.02 | 75 | 1013.8 |
| 20260509183055 | 69 | 120 | 0.0 | 3.0 | 0.00 | 0.02 | 0.02 | 76 | 1014.0 |
| 20260509181549 | 69 | 0 | 0.0 | 1.0 | 0.00 | 0.02 | 0.02 | 81 | 1013.9 |
| 20260509180047 | 68 | 121 | 0.0 | 1.0 | 0.00 | 0.02 | 0.02 | 81 | 1013.9 |
| 20260509174551 | 67 | 0 | 0.0 | 1.0 | 0.00 | 0.02 | 0.02 | 82 | 1013.8 |
| 20260509173108 | 67 | 0 | 0.0 | 3.0 | 0.00 | 0.02 | 0.02 | 84 | 1013.7 |
| 20260509171554 | 65 | 0 | 0.0 | 0.0 | 0.01 | 0.02 | 0.02 | 88 | 1014.2 |
| 20260509170056 | 64 | 184 | 0.0 | 2.0 | 0.01 | 0.02 | 0.02 | 90 | 1014.3 |
| 20260509164554 | 62 | 0 | 0.0 | 1.0 | 0.01 | 0.02 | 0.02 | 96 | 1014.6 |
| 20260509163053 | 60 | 0 | 0.0 | 0.0 | 0.02 | 0.02 | 0.02 | 97 | 1015.0 |
| 20260509161554 | 60 | 0 | 0.0 | 0.0 | 0.01 | 0.01 | 0.01 | 97 | 1014.7 |
| 20260509160051 | 60 | 0 | 0.0 | 0.0 | 0.01 | 0.01 | 0.01 | 96 | 1014.8 |
| 20260509154552 | 61 | 0 | 0.0 | 0.0 | 0.01 | 0.01 | 0.01 | 97 | 1015.0 |
| 20260509153056 | 60 | 0 | 0.0 | 0.0 | 0.00 | 0.00 | 0.00 | 96 | 1014.9 |
| 20260509151616 | 60 | 0 | 0.0 | 0.0 | 0.00 | 0.00 | 0.00 | 97 | 1015.0 |
| 20260509150052 | 60 | 0 | 0.0 | 0.0 | 0.00 | 0.00 | 0.00 | 97 | 1015.1 |
| 20260509144552 | 59 | 0 | 0.0 | 0.0 | 0.00 | 0.00 | 0.00 | 96 | 1015.1 |
| 20260509143057 | 60 | 0 | 0.0 | 0.0 | 0.00 | 0.00 | 0.00 | 96 | 1014.9 |
| 20260509141554 | 60 | 0 | 0.0 | 0.0 | 0.00 | 0.00 | 0.00 | 96 | 1014.5 |
| 20260509140053 | 59 | 0 | 0.0 | 0.0 | 0.00 | 0.00 | 0.00 | 96 | 1014.2 |
| 20260509134552 | 59 | 0 | 0.0 | 0.0 | 0.00 | 0.00 | 0.00 | 96 | 1014.0 |
| 20260509133047 | 59 | 0 | 0.0 | 0.0 | 0.00 | 0.00 | 0.00 | 96 | 1013.9 |
| 20260509131558 | 59 | 0 | 0.0 | 0.0 | 0.00 | 0.00 | 0.00 | 98 | 1013.9 |
| 20260509130122 | 59 | 0 | 0.0 | 0.0 | 0.00 | 0.00 | 0.00 | 98 | 1013.8 |
| 20260509124552 | 58 | 0 | 0.0 | 0.0 | 0.00 | 0.00 | 0.00 | 98 | 1013.8 |
| 20260509123118 | 58 | 0 | 0.0 | 0.0 | 0.00 | 0.00 | 0.00 | 98 | 1013.9 |
| 20260509121550 | 58 | 0 | 0.0 | 0.0 | 0.00 | 0.00 | 0.00 | 99 | 1013.5 |
| 20260509120050 | 58 | 0 | 0.0 | 0.0 | 0.00 | 0.00 | 0.00 | 99 | 1013.6 |
| 20260509114618 | 57 | 0 | 0.0 | 0.0 | 0.00 | 0.00 | 0.00 | 99 | 1013.6 |
| 20260509113103 | 56 | 0 | 0.0 | 0.0 | 0.00 | 0.00 | 0.00 | 99 | 1013.7 |
| 20260509111549 | 56 | 0 | 0.0 | 0.0 | 0.00 | 0.00 | 0.00 | 99 | 1013.8 |
| 20260509110057 | 56 | 0 | 0.0 | 0.0 | 0.00 | 0.00 | 0.00 | 99 | 1013.8 |
| 20260509104551 | 56 | 0 | 0.0 | 0.0 | 0.00 | 0.00 | 0.00 | 99 | 1013.6 |
| 20260509103057 | 55 | 0 | 0.0 | 0.0 | 0.00 | 0.00 | 0.00 | 99 | 1013.4 |
| 20260509101601 | 55 | 0 | 0.0 | 0.0 | 0.00 | 0.00 | 0.00 | 99 | 1013.3 |
| 20260509100054 | 54 | 0 | 0.0 | 0.0 | 0.00 | 0.00 | 0.00 | 99 | 1013.6 |
| 20260509094601 | 54 | 0 | 0.0 | 0.0 | 0.00 | 0.00 | 0.00 | 99 | 1013.7 |
| 20260509093058 | 54 | 0 | 0.0 | 0.0 | 0.00 | 0.00 | 0.00 | 99 | 1013.7 |
| 20260509091552 | 54 | 0 | 0.0 | 0.0 | 0.00 | 0.00 | 0.00 | 99 | 1013.6 |
| 20260509090054 | 54 | 0 | 0.0 | 0.0 | 0.00 | 0.00 | 0.00 | 99 | 1013.7 |
| 20260509084608 | 54 | 0 | 0.0 | 0.0 | 0.00 | 0.00 | 0.00 | 99 | 1013.6 |
| 20260509083051 | 53 | 0 | 0.0 | 0.0 | 0.00 | 0.00 | 0.00 | 99 | 1013.6 |
| 20260509081556 | 53 | 0 | 0.0 | 0.0 | 0.00 | 0.00 | 0.00 | 99 | 1013.8 |
| 20260509080059 | 52 | 0 | 0.0 | 0.0 | 0.00 | 0.00 | 0.00 | 99 | 1014.0 |
| 20260509074555 | 52 | 0 | 0.0 | 0.0 | 0.00 | 0.00 | 0.00 | 99 | 1013.7 |
| 20260509073054 | 52 | 0 | 0.0 | 0.0 | 0.00 | 0.00 | 0.00 | 99 | 1013.6 |
| 20260509071551 | 52 | 147 | 0.0 | 0.0 | 0.00 | 0.00 | 0.00 | 99 | 1013.4 |
| 20260509070050 | 52 | 0 | 0.0 | 0.0 | 0.00 | 0.00 | 0.00 | 99 | 1013.6 |
| 20260509064558 | 52 | 0 | 0.0 | 0.0 | 0.00 | 0.00 | 0.00 | 99 | 1013.8 |
| 20260509063051 | 51 | 0 | 0.0 | 0.0 | 0.00 | 0.00 | 0.00 | 99 | 1013.6 |
| 20260509061605 | 50 | 0 | 0.0 | 0.0 | 0.00 | 0.00 | 0.00 | 99 | 1014.1 |
| 20260509060054 | 49 | 0 | 0.0 | 0.0 | 0.00 | 0.00 | 0.00 | 98 | 1014.8 |
| 20260509054607 | 50 | 0 | 0.0 | 0.0 | 0.00 | 0.00 | 0.00 | 98 | 1015.1 |
| 20260509053055 | 50 | 0 | 0.0 | 0.0 | 0.00 | 0.00 | 0.00 | 98 | 1015.3 |
| 20260509051558 | 50 | 0 | 0.0 | 0.0 | 0.00 | 0.00 | 0.00 | 98 | 1014.9 |
| 20260509050053 | 50 | 0 | 0.0 | 0.0 | 0.00 | 0.00 | 0.00 | 98 | 1014.7 |
| 20260509044602 | 51 | 0 | 0.0 | 0.0 | 0.00 | 0.00 | 0.00 | 98 | 1014.9 |
| 20260509043050 | 51 | 0 | 0.0 | 0.0 | 0.00 | 0.00 | 0.00 | 98 | 1014.8 |
| 20260509041550 | 51 | 0 | 0.0 | 0.0 | 0.00 | 0.00 | 0.00 | 98 | 1015.3 |
| 20260509040052 | 51 | 0 | 0.0 | 0.0 | 0.00 | 0.00 | 0.00 | 98 | 1015.5 |
| 20260509034552 | 51 | 0 | 0.0 | 0.0 | 0.00 | 0.00 | 0.00 | 98 | 1015.6 |
| 20260509033054 | 51 | 0 | 0.0 | 0.0 | 0.00 | 0.00 | 0.00 | 97 | 1015.8 |
| 20260509031608 | 51 | 0 | 0.0 | 0.0 | 0.00 | 0.00 | 0.00 | 97 | 1016.1 |
| 20260509030104 | 52 | 0 | 0.0 | 0.0 | 0.00 | 0.00 | 0.00 | 97 | 1016.0 |
| 20260509024553 | 52 | 0 | 0.0 | 0.0 | 0.00 | 0.00 | 0.00 | 96 | 1016.1 |
| 20260509023059 | 53 | 0 | 0.0 | 0.0 | 0.00 | 0.00 | 0.00 | 96 | 1016.2 |
| 20260509021551 | 53 | 0 | 0.0 | 0.0 | 0.00 | 0.00 | 0.00 | 95 | 1015.9 |
| 20260509020049 | 54 | 0 | 0.0 | 0.0 | 0.00 | 0.00 | 0.00 | 95 | 1015.9 |
| 20260509014550 | 54 | 0 | 0.0 | 0.0 | 0.00 | 0.00 | 0.00 | 95 | 1015.8 |
| 20260509013048 | 55 | 0 | 0.0 | 0.0 | 0.00 | 0.00 | 0.00 | 94 | 1015.6 |
| 20260509011549 | 55 | 0 | 0.0 | 0.0 | 0.00 | 0.00 | 0.00 | 93 | 1015.6 |